User: anonymous   Login
Location: Demmingen
(48.6757°N, 10.4375°E)
Time: 01:44:34
(UTC+00:00)
Language:

Meteor 1-21 - Orbit

View from above orbital plane
View from above orbital plane
View from above satellite
View from above satellite

Ground track
Ground track

The orbit data is extracted from the following two-line orbital elements,

1 07714U 75023A   24194.51058318  .00000104  00000-0  53403-4 0  9991
2 07714  81.2061 197.0227 0029839 177.8496 182.2808 14.08283184848345
Epoch (UTC): 12 July 2024 12:15:14
Eccentricity: 0.0029839
inclination: 81.2061°
perigee height: 843 km
apogee height: 887 km
right ascension of ascending node: 197.0227°
argument of perigee: 177.8496°
revolutions per day: 14.08283184
mean anomaly at epoch: 182.2808°
orbit number at epoch: 84834

The dashed part of the orbit path shows where the satellite is in the earth's shadow,  

DLR